15:06
Airports
History
Links
Donate
Help keep this website running!
PayPal
Bitcoin
This page is community maintained. The information is intended for PC simulator navigation or reference.
Always use approved charts for navigation.
LEVX
Vigo
Vigo (LEVX)
Vigo, Galicia, Spain (36318)
(C)
Lat/Lng:42° 13' 54.82" N / 8° 37' 36.39" W
42.231894 / -8.626774
Elevation:855'ft / 261mMSL
ID / ICAO:LEVX
Runways:1
Longest:02-20
Asphalt 2,414m / 7,920ft
Controlled:Yes
METAR15:00 GMT 2018-01-20
Altimeter: 30.39
Visibility: 0.1 statute miles
Wind: 2 knots (from VRB°)
Temp: 9°c / 48°f
Humidity: 100.0%

METAR: LEVX 201500Z VRB02KT 0200 R19/0350N R01/0200N FG -DZ VV001 09/09 Q1029 TEMPO 0800 FG VV001

(Powered by phpweather)
Airport Radio Frequencies
Ground: 121.7
Tower: 118.45, 123.5
Approach: 120.2
Nearby VORs <50NM
Nearby NDBs
Runway 02 / 20
Dimensions:2414 x 45.1m 7920' x 148'ft
Surface:Asphalt
Edge Lights:Medium intensity
Runway 02 [A]Runway 20 [B]
Heading:011°TH 191°TH
Lat:
Lng:
42° 13' 16.6"N
8° 37' 46.78"W
42° 14' 33.04"N
8° 37' 26"W
ALS:Calvert ILS Cat II
TDZ:Yes, lighted
User Notes and Comments
42° 13' 54.82" N / 8° 37' 36.39" W
Distance To
Airport ID:
Nearby Airports
(U) BRAGA 45.5 NM
LPBR SSE 168°
(C) Santiago 47.2 NM
LEST ( WX ) NNE 13°
(U) Maia Airfield 67.0 NM
LPVL S 174°
(C) Porto 68.0 NM
LPPR ( WX ) S 182°
(U) Chaves Airfield 70.1 NM
LPCH ESE 120°
(C) A Coruna 75.0 NM
LECO ( WX ) N
(U) VILA REAL 81.0 NM
LPVR SE 144°
VFR Chart
Flight Planning at SkyVector.com